Lexington Weather

Lexington, Massachusetts, USA

69°F
6/18/2024 2:24am 
  • Lexington Conditions: Clear
  • Temperature: 68.5°F / 20.3°CColder 0.8°F than last hour.
  • Dew Point: 62.4°F 
  • Relative Humidity: 81%Increased 2.0% since last hour.
  • Wind: Calm, 10-min avg: Calm, gust: 4 mph
  • Barometer: 30.08 in Steady
  • Visibility: 10 miles
  • Rain Today: 0.00 in
  •   
Southeast Middlesex County, MA - Heat Advisory - Excessive Heat Watch
 - SEE ALL NEARBY ALERTS -

Regional Weather Roundup
for Boston, MA

        
000
ASUS41 KBOX 111310
RWRBOX

REGIONAL WEATHER ROUNDUP
NATIONAL WEATHER SERVICE BOSTON/NORTON MA
900 AM EDT TUE JUN 11 2024

NOTE:  "FAIR" INDICATES FEW OR NO CLOUDS BELOW 12,000 FEET WITH NO 
SIGNIFICANT WEATHER AND/OR OBSTRUCTIONS TO VISIBILITY.

MAZALL-111400-
EASTERN MASSACHUSETTS
  
CITY           SKY/WX    TMP DP  RH WIND       PRES   REMARKS
BOSTON         PTSUNNY   66  53  63 W9        29.88R                  
BEVERLY        SUNNY     64  54  69 NW8       29.87R                  
LAWRENCE       MOSUNNY   62  53  72 VRB5      29.90R                  
BEDFORD        MOSUNNY   64  53  67 NW7       29.88R                  
NORWOOD        CLOUDY    66  55  67 VRB3      29.89R                  
MARSHFIELD     SUNNY     66  52  59 NW3       29.89R                  
PLYMOUTH       SUNNY     67  54  63 VRB5      29.89R                  
TAUNTON        SUNNY     68  53  58 W5        29.89R                  
NEW BEDFORD    SUNNY     66  55  67 CALM      29.89R                  
$$

MAZALL-111400-
CAPE COD AND THE ISLANDS
  
CITY           SKY/WX    TMP DP  RH WIND       PRES   REMARKS
FALMOUTH       SUNNY     64  55  72 W6        29.91R                  
HYANNIS        SUNNY     65  54  67 N6        29.89R                  
CHATHAM        SUNNY     67  56  67 CALM      29.90R                  
PROVINCETOWN   SUNNY     64  56  75 NW7       29.90R                  
NANTUCKET      SUNNY     65  59  81 S7        29.90R                  
MARTHAS VNYRD  SUNNY     66  57  72 CALM      29.90R                  
$$
 
MAZALL-111400-
CENTRAL AND WESTERN MASSACHUSETTS
  
CITY           SKY/WX    TMP DP  RH WIND       PRES   REMARKS
WORCESTER      MOSUNNY   62  50  64 W9        29.91R                  
FITCHBURG      PTSUNNY   67  51  56 VRB6      29.90R                  
ORANGE           N/A     61  53  75 NW7       29.93R                  
SPRINGFIELD    MOSUNNY   64  51  62 N5        29.88S                  
WESTFIELD      MOSUNNY   67  53  61 MISG      29.90S                  
NORTH ADAMS    CLOUDY    61  53  75 W5        29.94R                  
PITTSFIELD     CLOUDY    57  50  77 W3        29.93R                  
$$
 
RIZALL-111400-
RHODE ISLAND
  
CITY           SKY/WX    TMP DP  RH WIND       PRES   REMARKS
PROVIDENCE     MOSUNNY   66  53  63 N10       29.90R                  
NEWPORT        SUNNY     64  54  69 N5        29.90R                  
BLOCK ISLAND   SUNNY     63  53  70 CALM      29.92R                  
SMITHFIELD     PTSUNNY   62  55  77 N6        29.91R                  
WESTERLY       SUNNY     65  54  67 CALM      29.91R                  
$$
 
CTZALL-111400-
CONNECTICUT
  
CITY           SKY/WX    TMP DP  RH WIND       PRES   REMARKS
BRADLEY INTL   PTSUNNY   67  52  58 NW6       29.91R                  
HARTFORD       MOSUNNY   66  52  60 N5        29.91R                  
PLAINVILLE     SUNNY     63  53  70 SW3       29.91S                  
BRIDGEPORT     SUNNY     64  52  64 NW8       29.92R                  
DANBURY        MOSUNNY   64  51  62 NW7       29.93S                  
GROTON         SUNNY     66  53  63 W3        29.90R                  
NEW HAVEN      SUNNY     66  55  67 VRB3      29.92R                  
CHESTER        MOSUNNY   64  54  68 VRB5      29.92R                  
MERIDEN        SUNNY     63  50  62 NW7       29.92R                  
WILLIMANTIC    SUNNY     64  52  64 N7        29.91F                  
OXFORD         SUNNY     60  52  74 NW7       29.93S                  
$$

MEZ002-015-021-024-NHZ003-005-008-011-012-014-VTZ005-008-111400-
NORTHERN NEW ENGLAND
  
CITY           SKY/WX    TMP DP  RH WIND       PRES   REMARKS
PORTLAND ME    PTSUNNY   65  56  72 N6        29.87R                  
BANGOR ME      MOSUNNY   65  55  70 CALM      29.86R                  
CONCORD NH     MOSUNNY   64  53  67 NW9       29.89R                  
MANCHESTER NH  MOSUNNY   66  51  58 N9        29.87R                  
NASHUA NH      MOSUNNY   64  54  69 NW9       29.89R                  
PORTSMOUTH NH  MOSUNNY   65  53  65 CALM      29.87R                  
JAFFREY NH     MOSUNNY   63  50  62 NW8       29.91R                  
KEENE NH       CLOUDY    61  52  72 NW8       29.91R                  
BURLINGTON VT  PTSUNNY   57  49  74 VRB6      29.95R                  
MT. WASHINGTON FOG       41  41 100 N5          N/A  VSB 1/16         
$$

NYZ052-076-111400-
EASTERN NEW YORK
  
CITY           SKY/WX    TMP DP  RH WIND       PRES   REMARKS
ALBANY         CLOUDY    61  52  72 NW7       29.95R                  
NEW YORK CITY  PTSUNNY   65  52  62 NE7       29.92R                  
$$
 
ANZALL-111400-
MARINE OBSERVATIONS
  
STATION/POSITION TIME  TEMP    WIND        PRES    VSBY  WAVE
                       AIR SEA DIR/SP/G                  HT/PER
                 (UTC) (F)     (DEG/KT/KT) (MB)    (MI)  (FT/S)
BOSTON BUOY      1250   60 61  270/  6/  8 1012.3R         1/ 8
BUZZARDS BAY     1200   61     310/  6/  7 1012.1R
NANTUCKET SOUND  1250   64 65   CALM  /  2 1012.1R         1
MASS BAY-STELLWA 1104   59 60  280/  8/  8 1010.9R  1 7/8  1/ 8
ISLE OF SHOALS   1200   57     300/  4/  5 1010.7R
S OF BLOCK IS    1226      62                N/A           2/ 7
$$

......................KEY.........................
  SKY/WX - SKY CONDITION/PRESENT WEATHER
  TMP    - TEMPERATURE IN FAHRENHEIT
  DWPT   - DEWPOINT IN FAHRENHEIT
  RH     - RELATIVE HUMIDITY IN PERCENT
  WIND   - DIRECTION AND SPEED IN MPH
  PRES   - MEAN SEA LEVEL PRESSURE IN INCHES OF HG
  WCI    - WIND CHILL INDEX
  VSB    - VISIBILITY IN MILES
  HX     - HEAT INDEX
  TC     - TEMPERATURE IN CELSIUS
  VRB    - VARIABLE WIND DIRECTION
  N/A    - NOT AVAILABLE
  
      

Other recent Regional Weather Roundups

Tue Jun 18, 2:10am EDT

Tue Jun 18, 1:10am EDT

Tue Jun 18, 12:10am EDT

Mon Jun 17, 11:10pm EDT

Mon Jun 17, 10:10pm EDT

Mon Jun 17, 9:10pm EDT

Mon Jun 17, 8:10pm EDT

Mon Jun 17, 7:10pm EDT

Mon Jun 17, 6:10pm EDT

Mon Jun 17, 5:10pm EDT

Mon Jun 17, 4:10pm EDT

Mon Jun 17, 3:10pm EDT

Mon Jun 17, 2:10pm EDT

Mon Jun 17, 1:10pm EDT

Mon Jun 17, 12:10pm EDT

Mon Jun 17, 11:10am EDT

Mon Jun 17, 10:10am EDT

Mon Jun 17, 9:10am EDT

Mon Jun 17, 8:10am EDT

Mon Jun 17, 7:10am EDT

Mon Jun 17, 6:10am EDT

Mon Jun 17, 5:10am EDT

Mon Jun 17, 4:10am EDT

Mon Jun 17, 3:10am EDT

Mon Jun 17, 2:10am EDT

Mon Jun 17, 1:10am EDT

Mon Jun 17, 12:10am EDT

Sun Jun 16, 11:10pm EDT

Sun Jun 16, 10:10pm EDT

Sun Jun 16, 9:10pm EDT

Sun Jun 16, 8:10pm EDT

Sun Jun 16, 7:10pm EDT

Sun Jun 16, 6:10pm EDT

Sun Jun 16, 5:10pm EDT

Sun Jun 16, 4:10pm EDT

Sun Jun 16, 3:10pm EDT

Sun Jun 16, 2:10pm EDT

Sun Jun 16, 1:10pm EDT

Sun Jun 16, 12:10pm EDT

Sun Jun 16, 11:10am EDT

Sun Jun 16, 10:10am EDT

Sun Jun 16, 9:10am EDT

Sun Jun 16, 8:10am EDT

Sun Jun 16, 7:10am EDT

Sun Jun 16, 6:10am EDT

Sun Jun 16, 5:10am EDT

Sun Jun 16, 4:10am EDT

Sun Jun 16, 3:10am EDT

Sun Jun 16, 2:10am EDT

Sun Jun 16, 1:10am EDT

Sun Jun 16, 12:10am EDT

Sat Jun 15, 11:10pm EDT

Sat Jun 15, 10:10pm EDT

Sat Jun 15, 9:10pm EDT

Sat Jun 15, 8:10pm EDT

Sat Jun 15, 7:10pm EDT

Sat Jun 15, 6:10pm EDT

Sat Jun 15, 5:10pm EDT

Sat Jun 15, 4:10pm EDT

Sat Jun 15, 3:10pm EDT

Sat Jun 15, 2:10pm EDT

Sat Jun 15, 1:10pm EDT

Sat Jun 15, 12:10pm EDT

Sat Jun 15, 11:10am EDT

Sat Jun 15, 10:10am EDT

Sat Jun 15, 9:10am EDT

Sat Jun 15, 8:10am EDT

Sat Jun 15, 7:10am EDT

Sat Jun 15, 6:10am EDT

Sat Jun 15, 5:10am EDT

Sat Jun 15, 4:10am EDT

Sat Jun 15, 3:10am EDT

Sat Jun 15, 2:10am EDT

Sat Jun 15, 1:10am EDT

Sat Jun 15, 12:10am EDT

Fri Jun 14, 11:10pm EDT

Fri Jun 14, 10:10pm EDT

Fri Jun 14, 9:10pm EDT

Fri Jun 14, 8:10pm EDT

Fri Jun 14, 7:10pm EDT

Fri Jun 14, 6:10pm EDT

Fri Jun 14, 5:10pm EDT

Fri Jun 14, 4:10pm EDT

Fri Jun 14, 3:10pm EDT

Fri Jun 14, 2:10pm EDT

Fri Jun 14, 1:10pm EDT

Fri Jun 14, 12:10pm EDT

Fri Jun 14, 11:10am EDT

Fri Jun 14, 10:10am EDT

Fri Jun 14, 9:10am EDT

Fri Jun 14, 8:10am EDT

Fri Jun 14, 7:10am EDT

Fri Jun 14, 6:10am EDT

Fri Jun 14, 5:10am EDT

Fri Jun 14, 4:10am EDT

Fri Jun 14, 3:10am EDT

Fri Jun 14, 2:10am EDT

Fri Jun 14, 1:10am EDT

Fri Jun 14, 12:10am EDT

Thu Jun 13, 11:10pm EDT

Thu Jun 13, 10:10pm EDT

Thu Jun 13, 9:10pm EDT

Thu Jun 13, 8:10pm EDT

Thu Jun 13, 7:10pm EDT

Thu Jun 13, 6:10pm EDT

Thu Jun 13, 5:10pm EDT

Thu Jun 13, 4:10pm EDT

Thu Jun 13, 3:10pm EDT

Thu Jun 13, 2:10pm EDT

Thu Jun 13, 1:10pm EDT

Thu Jun 13, 12:10pm EDT

Thu Jun 13, 11:10am EDT

Thu Jun 13, 10:10am EDT

Thu Jun 13, 9:10am EDT

Thu Jun 13, 8:10am EDT

Thu Jun 13, 7:10am EDT

Thu Jun 13, 6:10am EDT

Thu Jun 13, 5:10am EDT

Thu Jun 13, 4:10am EDT

Thu Jun 13, 3:10am EDT

Thu Jun 13, 2:10am EDT

Thu Jun 13, 1:10am EDT

Thu Jun 13, 12:10am EDT

Wed Jun 12, 11:10pm EDT

Wed Jun 12, 10:10pm EDT

Wed Jun 12, 9:10pm EDT

Wed Jun 12, 8:10pm EDT

Wed Jun 12, 7:10pm EDT

Wed Jun 12, 6:10pm EDT

Wed Jun 12, 5:10pm EDT

Wed Jun 12, 4:10pm EDT

Wed Jun 12, 3:10pm EDT

Wed Jun 12, 2:10pm EDT

Wed Jun 12, 1:10pm EDT

Wed Jun 12, 12:10pm EDT

Wed Jun 12, 11:10am EDT

Wed Jun 12, 10:10am EDT

Wed Jun 12, 9:10am EDT

Wed Jun 12, 8:10am EDT

Wed Jun 12, 7:10am EDT

Wed Jun 12, 6:10am EDT

Wed Jun 12, 5:10am EDT

Wed Jun 12, 4:10am EDT

Wed Jun 12, 3:10am EDT

Wed Jun 12, 2:10am EDT

Wed Jun 12, 1:10am EDT

Wed Jun 12, 12:10am EDT

Tue Jun 11, 11:10pm EDT

Tue Jun 11, 10:10pm EDT

Tue Jun 11, 9:10pm EDT

Tue Jun 11, 8:10pm EDT

Tue Jun 11, 7:10pm EDT

Tue Jun 11, 6:10pm EDT

Tue Jun 11, 5:10pm EDT

Tue Jun 11, 4:10pm EDT

Tue Jun 11, 3:10pm EDT

Tue Jun 11, 2:10pm EDT

Tue Jun 11, 1:10pm EDT

Tue Jun 11, 12:10pm EDT

Tue Jun 11, 11:10am EDT

Tue Jun 11, 10:10am EDT

Tue Jun 11, 8:10am EDT

Tue Jun 11, 7:10am EDT

Tue Jun 11, 6:10am EDT

Tue Jun 11, 5:10am EDT

Tue Jun 11, 4:10am EDT

Tue Jun 11, 3:10am EDT